Time,TemperatureF,DewpointF,PressureIn,WindDirection,WindDirectionDegrees,WindSpeedMPH,WindSpeedGustMPH,Humidity,HourlyPrecipIn,Conditions,Clouds,dailyrainin,SoftwareType,DateUTC
2015-05-05 00:04:00,49.6,42.0,29.96,ESE,112,5.4,5.4,76,0.00,,,0.00,Rainwise IP-100,2015-05-05 07:04:00,
2015-05-05 00:09:00,49.6,42.0,29.95,SSE,157,1.6,5.0,76,0.00,,,0.00,Rainwise IP-100,2015-05-05 07:09:00,
2015-05-05 00:14:00,50.0,42.0,29.96,NNW,337,0.0,7.0,75,0.00,,,0.00,Rainwise IP-100,2015-05-05 07:14:00,
2015-05-05 00:19:00,50.2,42.0,29.96,SSW,202,0.0,5.0,75,0.00,,,0.00,Rainwise IP-100,2015-05-05 07:19:00,
2015-05-05 00:24:00,50.1,42.0,29.96,SSE,157,1.9,2.0,75,0.00,,,0.00,Rainwise IP-100,2015-05-05 07:24:00,
2015-05-05 00:29:00,50.0,42.0,29.96,South,180,0.0,2.0,76,0.00,,,0.00,Rainwise IP-100,2015-05-05 07:29:00,
2015-05-05 00:34:00,49.8,42.0,29.95,SSE,157,1.9,5.0,76,0.00,,,0.00,Rainwise IP-100,2015-05-05 07:34:00,
2015-05-05 00:39:00,49.6,43.0,29.96,South,180,0.0,5.0,77,0.00,,,0.00,Rainwise IP-100,2015-05-05 07:39:00,
2015-05-05 00:44:00,49.7,43.0,29.96,SSW,202,0.0,1.0,77,0.00,,,0.00,Rainwise IP-100,2015-05-05 07:44:00,
2015-05-05 00:49:00,49.6,43.0,29.96,SSW,202,1.2,1.2,78,0.00,,,0.00,Rainwise IP-100,2015-05-05 07:49:00,
2015-05-05 00:54:00,49.3,43.0,29.96,SSW,202,0.0,1.0,79,0.00,,,0.00,Rainwise IP-100,2015-05-05 07:54:00,
2015-05-05 00:59:00,49.1,43.0,29.96,SSW,202,1.4,1.4,80,0.00,,,0.00,Rainwise IP-100,2015-05-05 07:59:00,
2015-05-05 01:04:00,49.0,43.0,29.96,ESE,112,2.1,2.1,81,0.00,,,0.00,Rainwise IP-100,2015-05-05 08:04:00,
2015-05-05 01:09:00,49.0,43.0,29.96,SSE,157,1.6,2.0,81,0.00,,,0.00,Rainwise IP-100,2015-05-05 08:09:00,
2015-05-05 01:14:00,49.0,43.0,29.96,SSE,157,0.0,2.0,81,0.00,,,0.00,Rainwise IP-100,2015-05-05 08:14:00,
2015-05-05 01:19:00,49.0,43.0,29.96,SSE,157,1.4,1.4,81,0.00,,,0.00,Rainwise IP-100,2015-05-05 08:19:00,
2015-05-05 01:24:00,48.9,44.0,29.96,SE,135,2.3,2.3,82,0.00,,,0.00,Rainwise IP-100,2015-05-05 08:24:00,
2015-05-05 01:29:00,48.9,44.0,29.96,ESE,112,2.3,2.3,82,0.00,,,0.00,Rainwise IP-100,2015-05-05 08:29:00,
2015-05-05 01:34:00,48.9,44.0,29.96,SE,135,0.0,3.0,83,0.00,,,0.00,Rainwise IP-100,2015-05-05 08:34:00,
2015-05-05 01:39:00,48.7,44.0,29.96,SE,135,2.8,2.8,83,0.00,,,0.00,Rainwise IP-100,2015-05-05 08:39:00,
2015-05-05 01:44:00,48.5,44.0,29.96,SSW,202,0.0,3.0,84,0.00,,,0.00,Rainwise IP-100,2015-05-05 08:44:00,
2015-05-05 01:49:00,48.3,44.0,29.96,South,180,0.0,2.0,85,0.00,,,0.00,Rainwise IP-100,2015-05-05 08:49:00,
2015-05-05 01:54:00,48.2,44.0,29.96,SSE,157,2.3,3.0,85,0.00,,,0.00,Rainwise IP-100,2015-05-05 08:54:00,
2015-05-05 01:59:00,48.1,44.0,29.95,ESE,112,3.3,3.3,86,0.00,,,0.00,Rainwise IP-100,2015-05-05 08:59:00,
2015-05-05 02:04:00,47.9,44.0,29.96,WSW,247,3.0,4.0,86,0.00,,,0.00,Rainwise IP-100,2015-05-05 09:04:00,
2015-05-05 02:09:00,47.7,44.0,29.96,WSW,247,0.0,4.0,87,0.00,,,0.00,Rainwise IP-100,2015-05-05 09:09:00,
2015-05-05 02:14:00,47.4,44.0,29.96,SSW,202,1.6,2.0,87,0.00,,,0.00,Rainwise IP-100,2015-05-05 09:14:00,
2015-05-05 02:19:00,47.2,43.0,29.96,SSW,202,0.0,1.0,87,0.00,,,0.00,Rainwise IP-100,2015-05-05 09:19:00,
2015-05-05 02:24:00,47.2,43.0,29.96,SSE,157,2.6,2.6,88,0.00,,,0.00,Rainwise IP-100,2015-05-05 09:24:00,
2015-05-05 02:29:00,47.3,43.0,29.96,ESE,112,1.6,4.0,89,0.00,,,0.00,Rainwise IP-100,2015-05-05 09:29:00,
2015-05-05 02:34:00,47.5,44.0,29.96,SE,135,4.4,4.4,89,0.00,,,0.00,Rainwise IP-100,2015-05-05 09:34:00,
2015-05-05 02:39:00,47.7,44.0,29.96,SSE,157,2.3,5.0,88,0.00,,,0.00,Rainwise IP-100,2015-05-05 09:39:00,
2015-05-05 02:44:00,47.9,45.0,29.96,ESE,112,3.7,3.7,88,0.00,,,0.00,Rainwise IP-100,2015-05-05 09:44:00,
2015-05-05 02:49:00,48.2,45.0,29.96,SSE,157,1.6,5.0,87,0.00,,,0.00,Rainwise IP-100,2015-05-05 09:49:00,
2015-05-05 02:54:00,48.3,45.0,29.96,SSE,157,0.0,2.0,87,0.00,,,0.00,Rainwise IP-100,2015-05-05 09:54:00,
2015-05-05 02:59:00,48.2,45.0,29.96,SSE,157,0.0,0.0,87,0.00,,,0.00,Rainwise IP-100,2015-05-05 09:59:00,
2015-05-05 03:04:00,48.1,45.0,29.96,SSE,157,2.3,2.3,88,0.00,,,0.00,Rainwise IP-100,2015-05-05 10:04:00,
2015-05-05 03:09:00,48.1,45.0,29.96,SSE,157,3.0,3.0,87,0.00,,,0.00,Rainwise IP-100,2015-05-05 10:09:00,
2015-05-05 03:14:00,48.1,45.0,29.96,SSE,157,0.0,3.0,87,0.00,,,0.00,Rainwise IP-100,2015-05-05 10:14:00,
2015-05-05 03:19:00,48.0,45.0,29.96,SSE,157,0.0,1.0,88,0.00,,,0.00,Rainwise IP-100,2015-05-05 10:19:00,
2015-05-05 03:24:00,47.8,44.0,29.96,SSE,157,0.0,0.0,88,0.00,,,0.00,Rainwise IP-100,2015-05-05 10:24:00,
2015-05-05 03:29:00,47.5,44.0,29.96,ENE,67,3.3,3.3,89,0.00,,,0.00,Rainwise IP-100,2015-05-05 10:29:00,
2015-05-05 03:34:00,47.3,44.0,29.96,SSE,157,2.6,5.0,90,0.00,,,0.00,Rainwise IP-100,2015-05-05 10:34:00,
2015-05-05 03:39:00,47.2,44.0,29.96,SE,135,2.6,3.0,91,0.00,,,0.00,Rainwise IP-100,2015-05-05 10:39:00,
2015-05-05 03:44:00,47.0,44.0,29.96,SE,135,2.8,4.0,91,0.00,,,0.00,Rainwise IP-100,2015-05-05 10:44:00,
2015-05-05 03:49:00,46.8,44.0,29.96,SSE,157,2.1,4.0,92,0.00,,,0.00,Rainwise IP-100,2015-05-05 10:49:00,
2015-05-05 03:54:00,46.6,44.0,29.96,SSW,202,1.6,3.0,92,0.00,,,0.00,Rainwise IP-100,2015-05-05 10:54:00,
2015-05-05 03:59:00,46.4,44.0,29.96,SSE,157,1.9,3.0,92,0.06,,,0.01,Rainwise IP-100,2015-05-05 10:59:00,
2015-05-05 04:04:00,46.2,44.0,29.96,South,180,2.6,4.0,92,0.06,,,0.01,Rainwise IP-100,2015-05-05 11:04:00,
2015-05-05 04:09:00,46.1,44.0,29.96,SSE,157,1.2,5.0,92,0.00,,,0.01,Rainwise IP-100,2015-05-05 11:09:00,
2015-05-05 04:14:00,46.1,44.0,29.95,SSW,202,1.4,2.0,93,0.00,,,0.01,Rainwise IP-100,2015-05-05 11:14:00,
2015-05-05 04:19:00,46.1,44.0,29.96,SSW,202,0.0,2.0,93,0.00,,,0.01,Rainwise IP-100,2015-05-05 11:19:00,
2015-05-05 04:24:00,46.0,44.0,29.95,South,180,1.6,1.6,93,0.00,,,0.01,Rainwise IP-100,2015-05-05 11:24:00,
2015-05-05 04:29:00,45.8,44.0,29.95,SSE,157,0.0,3.0,93,0.00,,,0.01,Rainwise IP-100,2015-05-05 11:29:00,
2015-05-05 04:34:00,45.6,44.0,29.95,SSW,202,1.4,1.4,94,0.00,,,0.01,Rainwise IP-100,2015-05-05 11:34:00,
2015-05-05 04:39:00,45.6,44.0,29.96,SSW,202,3.3,3.3,94,0.00,,,0.01,Rainwise IP-100,2015-05-05 11:39:00,
2015-05-05 04:44:00,45.8,44.0,29.97,ESE,112,1.4,4.0,94,0.00,,,0.01,Rainwise IP-100,2015-05-05 11:44:00,
2015-05-05 04:49:00,45.9,44.0,29.96,SSE,157,2.1,3.0,94,0.00,,,0.01,Rainwise IP-100,2015-05-05 11:49:00,
2015-05-05 04:54:00,45.9,44.0,29.96,South,180,2.1,3.0,94,0.00,,,0.01,Rainwise IP-100,2015-05-05 11:54:00,
2015-05-05 04:59:00,45.8,44.0,29.96,South,180,0.0,2.0,95,0.00,,,0.01,Rainwise IP-100,2015-05-05 11:59:00,
2015-05-05 05:04:00,45.8,44.0,29.95,WSW,247,2.3,2.3,95,0.00,,,0.01,Rainwise IP-100,2015-05-05 12:04:00,
2015-05-05 05:09:00,46.0,44.0,29.95,SSW,202,0.0,2.0,94,0.00,,,0.01,Rainwise IP-100,2015-05-05 12:09:00,
2015-05-05 05:14:00,46.2,44.0,29.95,SSW,202,0.0,0.0,94,0.00,,,0.01,Rainwise IP-100,2015-05-05 12:14:00,
2015-05-05 05:19:00,46.2,44.0,29.96,SSW,202,1.9,2.0,95,0.00,,,0.01,Rainwise IP-100,2015-05-05 12:19:00,
2015-05-05 05:24:00,46.2,44.0,29.96,SSW,202,2.1,3.0,95,0.00,,,0.01,Rainwise IP-100,2015-05-05 12:24:00,
2015-05-05 05:29:00,46.3,44.0,29.96,ESE,112,5.1,5.1,95,0.00,,,0.01,Rainwise IP-100,2015-05-05 12:29:00,
2015-05-05 05:34:00,46.5,45.0,29.96,ESE,112,2.8,5.0,94,0.00,,,0.01,Rainwise IP-100,2015-05-05 12:34:00,
2015-05-05 05:39:00,46.6,45.0,29.96,ESE,112,1.6,4.0,94,0.00,,,0.01,Rainwise IP-100,2015-05-05 12:39:00,
2015-05-05 05:44:00,46.6,45.0,29.96,SE,135,5.1,5.1,94,0.00,,,0.01,Rainwise IP-100,2015-05-05 12:44:00,
2015-05-05 05:49:00,46.7,45.0,29.97,SSE,157,0.0,7.0,93,0.00,,,0.01,Rainwise IP-100,2015-05-05 12:49:00,
2015-05-05 05:54:00,46.7,44.0,29.97,ENE,67,3.5,4.0,92,0.00,,,0.01,Rainwise IP-100,2015-05-05 12:54:00,
2015-05-05 05:59:00,46.8,44.0,29.97,SE,135,1.4,5.0,91,0.00,,,0.01,Rainwise IP-100,2015-05-05 12:59:00,
2015-05-05 06:04:00,46.7,44.0,29.97,East,90,2.8,6.0,91,0.00,,,0.01,Rainwise IP-100,2015-05-05 13:04:00,
2015-05-05 06:09:00,46.5,44.0,29.96,East,90,4.2,5.0,91,0.00,,,0.01,Rainwise IP-100,2015-05-05 13:09:00,
2015-05-05 06:14:00,46.3,43.0,29.96,ESE,112,1.9,6.0,91,0.00,,,0.01,Rainwise IP-100,2015-05-05 13:14:00,
2015-05-05 06:19:00,46.0,44.0,29.97,SE,135,0.0,4.0,92,0.00,,,0.01,Rainwise IP-100,2015-05-05 13:19:00,
2015-05-05 06:24:00,46.0,44.0,29.96,East,90,2.3,5.0,92,0.00,,,0.01,Rainwise IP-100,2015-05-05 13:24:00,
2015-05-05 06:29:00,46.0,44.0,29.96,ESE,112,2.3,4.0,92,0.00,,,0.01,Rainwise IP-100,2015-05-05 13:29:00,
2015-05-05 06:34:00,45.9,44.0,29.97,ENE,67,4.9,5.0,92,0.00,,,0.01,Rainwise IP-100,2015-05-05 13:34:00,
2015-05-05 06:39:00,46.0,44.0,29.97,ESE,112,0.0,6.0,92,0.00,,,0.01,Rainwise IP-100,2015-05-05 13:39:00,
2015-05-05 06:44:00,46.0,44.0,29.97,SSE,157,2.8,2.8,92,0.00,,,0.01,Rainwise IP-100,2015-05-05 13:44:00,
2015-05-05 06:49:00,46.0,44.0,29.97,SE,135,1.2,3.0,92,0.00,,,0.01,Rainwise IP-100,2015-05-05 13:49:00,
2015-05-05 06:54:00,46.0,44.0,29.97,WSW,247,0.0,2.0,93,0.06,,,0.02,Rainwise IP-100,2015-05-05 13:54:00,
2015-05-05 06:59:00,45.9,44.0,29.97,SSE,157,2.1,3.0,93,0.06,,,0.02,Rainwise IP-100,2015-05-05 13:59:00,
2015-05-05 07:04:00,45.9,44.0,29.97,SSE,157,2.6,3.0,93,0.00,,,0.02,Rainwise IP-100,2015-05-05 14:04:00,
2015-05-05 07:09:00,45.9,44.0,29.97,SSW,202,0.0,3.0,94,0.00,,,0.02,Rainwise IP-100,2015-05-05 14:09:00,
2015-05-05 07:14:00,45.8,44.0,29.98,SE,135,1.6,4.0,94,0.06,,,0.03,Rainwise IP-100,2015-05-05 14:14:00,
2015-05-05 07:19:00,46.0,44.0,29.98,SSE,157,1.9,5.0,94,0.06,,,0.03,Rainwise IP-100,2015-05-05 14:19:00,
2015-05-05 07:24:00,46.1,44.0,29.98,SSW,202,0.0,3.0,94,0.00,,,0.03,Rainwise IP-100,2015-05-05 14:24:00,
2015-05-05 07:29:00,46.2,44.0,29.98,SSE,157,3.0,6.0,93,0.00,,,0.03,Rainwise IP-100,2015-05-05 14:29:00,
2015-05-05 07:34:00,46.3,44.0,29.98,ESE,112,4.7,4.7,92,0.00,,,0.03,Rainwise IP-100,2015-05-05 14:34:00,
2015-05-05 07:39:00,46.3,44.0,29.98,ESE,112,2.6,6.0,92,0.00,,,0.03,Rainwise IP-100,2015-05-05 14:39:00,
2015-05-05 07:44:00,46.3,44.0,29.98,SSW,202,1.4,7.0,92,0.00,,,0.03,Rainwise IP-100,2015-05-05 14:44:00,
2015-05-05 07:49:00,46.3,44.0,29.99,WSW,247,0.0,4.0,92,0.00,,,0.03,Rainwise IP-100,2015-05-05 14:49:00,
2015-05-05 07:54:00,46.4,43.0,29.99,SW,225,2.8,7.0,91,0.00,,,0.03,Rainwise IP-100,2015-05-05 14:54:00,
2015-05-05 07:59:00,46.5,44.0,29.99,SE,135,3.5,3.5,90,0.00,,,0.03,Rainwise IP-100,2015-05-05 14:59:00,
2015-05-05 08:04:00,46.4,43.0,29.99,SSE,157,7.0,7.0,90,0.00,,,0.03,Rainwise IP-100,2015-05-05 15:04:00,
2015-05-05 08:09:00,46.5,44.0,29.99,SSE,157,2.1,10.0,90,0.00,,,0.03,Rainwise IP-100,2015-05-05 15:09:00,
2015-05-05 08:14:00,47.2,43.0,29.99,East,90,5.8,7.0,89,0.00,,,0.03,Rainwise IP-100,2015-05-05 15:14:00,
2015-05-05 08:19:00,47.9,45.0,29.99,ESE,112,3.5,6.0,88,0.00,,,0.03,Rainwise IP-100,2015-05-05 15:19:00,
2015-05-05 08:24:00,48.2,45.0,30.00,East,90,3.5,6.0,87,0.00,,,0.03,Rainwise IP-100,2015-05-05 15:24:00,
2015-05-05 08:29:00,48.5,45.0,30.00,SSE,157,1.6,6.0,87,0.00,,,0.03,Rainwise IP-100,2015-05-05 15:29:00,
2015-05-05 08:34:00,48.7,45.0,30.00,ESE,112,1.9,4.0,86,0.00,,,0.03,Rainwise IP-100,2015-05-05 15:34:00,
2015-05-05 08:39:00,48.9,45.0,30.00,East,90,1.2,3.0,85,0.00,,,0.03,Rainwise IP-100,2015-05-05 15:39:00,
2015-05-05 08:44:00,49.0,44.0,30.00,East,90,2.6,6.0,84,0.00,,,0.03,Rainwise IP-100,2015-05-05 15:44:00,
2015-05-05 08:49:00,49.0,44.0,30.00,South,180,0.0,5.0,84,0.00,,,0.03,Rainwise IP-100,2015-05-05 15:49:00,
2015-05-05 08:54:00,49.1,44.0,30.00,ESE,112,2.6,6.0,84,0.00,,,0.03,Rainwise IP-100,2015-05-05 15:54:00,
2015-05-05 08:59:00,49.1,44.0,30.01,ENE,67,1.9,7.0,83,0.00,,,0.03,Rainwise IP-100,2015-05-05 15:59:00,
2015-05-05 09:04:00,49.0,44.0,30.01,ENE,67,1.6,3.0,83,0.00,,,0.03,Rainwise IP-100,2015-05-05 16:04:00,
2015-05-05 09:09:00,48.9,44.0,30.01,ENE,67,2.8,3.0,83,0.00,,,0.03,Rainwise IP-100,2015-05-05 16:09:00,
2015-05-05 09:14:00,48.8,44.0,30.01,ESE,112,3.0,5.0,84,0.00,,,0.03,Rainwise IP-100,2015-05-05 16:14:00,
2015-05-05 09:19:00,48.7,44.0,30.01,ESE,112,3.3,3.3,84,0.00,,,0.03,Rainwise IP-100,2015-05-05 16:19:00,
2015-05-05 09:24:00,48.5,45.0,30.01,ESE,112,4.9,6.0,85,0.00,,,0.03,Rainwise IP-100,2015-05-05 16:24:00,
2015-05-05 09:29:00,48.3,44.0,30.01,ESE,112,2.1,4.0,85,0.00,,,0.03,Rainwise IP-100,2015-05-05 16:29:00,
2015-05-05 09:34:00,48.5,45.0,30.01,ESE,112,1.6,5.0,85,0.00,,,0.03,Rainwise IP-100,2015-05-05 16:34:00,
2015-05-05 09:39:00,48.8,45.0,30.01,ESE,112,7.9,7.9,85,0.00,,,0.03,Rainwise IP-100,2015-05-05 16:39:00,
2015-05-05 09:44:00,49.0,45.0,30.01,ENE,67,0.0,8.0,85,0.00,,,0.03,Rainwise IP-100,2015-05-05 16:44:00,
2015-05-05 09:49:00,49.5,45.0,30.01,SSE,157,3.0,7.0,84,0.00,,,0.03,Rainwise IP-100,2015-05-05 16:49:00,
2015-05-05 09:54:00,50.0,45.0,30.01,SE,135,2.3,7.0,82,0.00,,,0.03,Rainwise IP-100,2015-05-05 16:54:00,
2015-05-05 09:59:00,50.6,45.0,30.01,SSE,157,2.1,8.0,80,0.00,,,0.03,Rainwise IP-100,2015-05-05 16:59:00,
2015-05-05 10:04:00,51.1,45.0,30.01,East,90,7.5,9.0,78,0.00,,,0.03,Rainwise IP-100,2015-05-05 17:04:00,
2015-05-05 10:09:00,51.1,45.0,30.01,ESE,112,6.1,8.0,78,0.00,,,0.03,Rainwise IP-100,2015-05-05 17:09:00,
2015-05-05 10:14:00,50.8,43.0,30.01,ESE,112,6.8,8.0,77,0.00,,,0.03,Rainwise IP-100,2015-05-05 17:14:00,
2015-05-05 10:19:00,50.8,43.0,30.02,SSE,157,5.4,10.0,77,0.00,,,0.03,Rainwise IP-100,2015-05-05 17:19:00,
2015-05-05 10:24:00,51.3,44.0,30.01,ESE,112,3.7,9.0,76,0.00,,,0.03,Rainwise IP-100,2015-05-05 17:24:00,
2015-05-05 10:29:00,51.5,44.0,30.02,SSE,157,1.6,7.0,75,0.00,,,0.03,Rainwise IP-100,2015-05-05 17:29:00,
2015-05-05 10:34:00,51.7,44.0,30.02,North,360,3.3,7.0,74,0.00,,,0.03,Rainwise IP-100,2015-05-05 17:34:00,
2015-05-05 10:39:00,52.2,43.0,30.02,SE,135,3.5,6.0,73,0.00,,,0.03,Rainwise IP-100,2015-05-05 17:39:00,
2015-05-05 10:44:00,52.5,44.0,30.02,ENE,67,3.0,7.0,73,0.00,,,0.03,Rainwise IP-100,2015-05-05 17:44:00,
2015-05-05 10:49:00,52.8,44.0,30.02,ESE,112,1.4,12.0,72,0.00,,,0.03,Rainwise IP-100,2015-05-05 17:49:00,
2015-05-05 10:54:00,53.3,43.0,30.02,NNW,337,0.0,9.0,71,0.00,,,0.03,Rainwise IP-100,2015-05-05 17:54:00,
2015-05-05 10:59:00,54.5,46.0,30.02,ESE,112,8.4,11.0,71,0.00,,,0.03,Rainwise IP-100,2015-05-05 17:59:00,
2015-05-05 11:04:00,54.8,45.0,30.02,ESE,112,10.5,17.0,69,0.00,,,0.03,Rainwise IP-100,2015-05-05 18:04:00,
2015-05-05 11:09:00,54.2,44.0,30.02,ENE,67,6.5,12.0,68,0.00,,,0.03,Rainwise IP-100,2015-05-05 18:09:00,
2015-05-05 11:14:00,54.2,43.0,30.02,WSW,247,5.8,15.0,67,0.00,,,0.03,Rainwise IP-100,2015-05-05 18:14:00,
2015-05-05 11:19:00,54.2,42.0,30.02,SSW,202,1.9,10.0,65,0.00,,,0.03,Rainwise IP-100,2015-05-05 18:19:00,
2015-05-05 11:24:00,54.8,43.0,30.02,ENE,67,2.3,10.0,64,0.00,,,0.03,Rainwise IP-100,2015-05-05 18:24:00,
2015-05-05 11:29:00,55.6,44.0,30.01,ESE,112,7.5,11.0,64,0.00,,,0.03,Rainwise IP-100,2015-05-05 18:29:00,
2015-05-05 11:34:00,56.1,43.0,30.02,West,270,5.6,12.0,63,0.00,,,0.03,Rainwise IP-100,2015-05-05 18:34:00,
2015-05-05 11:39:00,55.9,43.0,30.02,SW,225,2.3,12.0,62,0.00,,,0.03,Rainwise IP-100,2015-05-05 18:39:00,
2015-05-05 11:44:00,56.1,42.0,30.02,SSE,157,1.4,7.0,61,0.00,,,0.03,Rainwise IP-100,2015-05-05 18:44:00,
2015-05-05 11:49:00,56.6,43.0,30.02,ESE,112,13.3,13.3,60,0.00,,,0.03,Rainwise IP-100,2015-05-05 18:49:00,
2015-05-05 11:54:00,56.5,42.0,30.02,ENE,67,2.6,15.0,59,0.00,,,0.03,Rainwise IP-100,2015-05-05 18:54:00,
2015-05-05 11:59:00,56.1,42.0,30.02,SSW,202,3.5,9.0,60,0.00,,,0.03,Rainwise IP-100,2015-05-05 18:59:00,
2015-05-05 12:04:00,56.2,42.0,30.02,ESE,112,2.8,7.0,60,0.00,,,0.03,Rainwise IP-100,2015-05-05 19:04:00,
2015-05-05 12:09:00,56.3,42.0,30.02,ESE,112,6.5,11.0,59,0.00,,,0.03,Rainwise IP-100,2015-05-05 19:09:00,
2015-05-05 12:14:00,56.1,41.0,30.02,SE,135,6.3,12.0,58,0.00,,,0.03,Rainwise IP-100,2015-05-05 19:14:00,
2015-05-05 12:19:00,56.0,41.0,30.02,West,270,2.8,9.0,58,0.00,,,0.03,Rainwise IP-100,2015-05-05 19:19:00,
2015-05-05 12:24:00,56.1,41.0,30.02,NW,315,2.3,8.0,58,0.00,,,0.03,Rainwise IP-100,2015-05-05 19:24:00,
2015-05-05 12:29:00,57.0,42.0,30.02,NNW,337,1.4,5.0,58,0.00,,,0.03,Rainwise IP-100,2015-05-05 19:29:00,
2015-05-05 12:34:00,57.9,43.0,30.02,SE,135,5.1,12.0,57,0.00,,,0.03,Rainwise IP-100,2015-05-05 19:34:00,
2015-05-05 12:39:00,57.3,41.0,30.02,WSW,247,3.0,12.0,56,0.00,,,0.03,Rainwise IP-100,2015-05-05 19:39:00,
2015-05-05 12:44:00,56.7,41.0,30.02,WSW,247,6.8,10.0,56,0.00,,,0.03,Rainwise IP-100,2015-05-05 19:44:00,
2015-05-05 12:49:00,57.0,41.0,30.01,WNW,292,8.2,11.0,56,0.00,,,0.03,Rainwise IP-100,2015-05-05 19:49:00,
2015-05-05 12:54:00,57.1,41.0,30.02,NW,315,3.5,11.0,55,0.00,,,0.03,Rainwise IP-100,2015-05-05 19:54:00,
2015-05-05 12:59:00,57.0,41.0,30.02,SE,135,7.2,9.0,55,0.00,,,0.03,Rainwise IP-100,2015-05-05 19:59:00,
2015-05-05 13:04:00,57.5,41.0,30.02,ESE,112,2.8,13.0,55,0.00,,,0.03,Rainwise IP-100,2015-05-05 20:04:00,
2015-05-05 13:09:00,57.9,41.0,30.02,ESE,112,7.7,11.0,54,0.00,,,0.03,Rainwise IP-100,2015-05-05 20:09:00,
2015-05-05 13:14:00,57.9,41.0,30.02,WNW,292,4.7,10.0,54,0.00,,,0.03,Rainwise IP-100,2015-05-05 20:14:00,
2015-05-05 13:19:00,58.1,41.0,30.01,West,270,4.4,12.0,53,0.00,,,0.03,Rainwise IP-100,2015-05-05 20:19:00,
2015-05-05 13:24:00,58.5,42.0,30.01,ENE,67,2.6,12.0,53,0.00,,,0.03,Rainwise IP-100,2015-05-05 20:24:00,
2015-05-05 13:29:00,57.9,41.0,30.02,WNW,292,5.4,12.0,53,0.00,,,0.03,Rainwise IP-100,2015-05-05 20:29:00,
2015-05-05 13:34:00,56.8,40.0,30.03,SSW,202,6.1,12.0,54,0.00,,,0.03,Rainwise IP-100,2015-05-05 20:34:00,
2015-05-05 13:39:00,56.3,40.0,30.02,North,360,3.3,8.0,56,0.00,,,0.03,Rainwise IP-100,2015-05-05 20:39:00,
2015-05-05 13:44:00,56.3,40.0,30.02,WSW,247,1.9,12.0,56,0.00,,,0.03,Rainwise IP-100,2015-05-05 20:44:00,
2015-05-05 13:49:00,56.6,41.0,30.02,SE,135,12.6,13.0,57,0.00,,,0.03,Rainwise IP-100,2015-05-05 20:49:00,
2015-05-05 13:54:00,56.7,41.0,30.02,WNW,292,1.9,12.0,57,0.00,,,0.03,Rainwise IP-100,2015-05-05 20:54:00,
2015-05-05 13:59:00,56.6,41.0,30.02,WSW,247,2.1,13.0,57,0.00,,,0.03,Rainwise IP-100,2015-05-05 20:59:00,
2015-05-05 14:04:00,56.9,42.0,30.02,ESE,112,7.9,13.0,58,0.00,,,0.03,Rainwise IP-100,2015-05-05 21:04:00,
2015-05-05 14:09:00,57.3,42.0,30.02,WSW,247,7.0,11.0,58,0.00,,,0.03,Rainwise IP-100,2015-05-05 21:09:00,
2015-05-05 14:14:00,57.8,42.0,30.02,WSW,247,8.2,11.0,57,0.00,,,0.03,Rainwise IP-100,2015-05-05 21:14:00,
2015-05-05 14:19:00,58.1,42.0,30.02,WSW,247,7.0,13.0,55,0.00,,,0.03,Rainwise IP-100,2015-05-05 21:19:00,
2015-05-05 14:24:00,58.1,40.0,30.01,SSE,157,3.3,13.0,52,0.00,,,0.03,Rainwise IP-100,2015-05-05 21:24:00,
2015-05-05 14:29:00,58.3,40.0,30.01,West,270,3.7,11.0,50,0.00,,,0.03,Rainwise IP-100,2015-05-05 21:29:00,
2015-05-05 14:34:00,58.7,40.0,30.01,SSE,157,6.3,10.0,49,0.00,,,0.03,Rainwise IP-100,2015-05-05 21:34:00,
2015-05-05 14:39:00,58.9,40.0,30.01,SSW,202,3.5,8.0,49,0.00,,,0.03,Rainwise IP-100,2015-05-05 21:39:00,
2015-05-05 14:44:00,58.7,39.0,30.02,ESE,112,3.3,6.0,48,0.00,,,0.03,Rainwise IP-100,2015-05-05 21:44:00,
2015-05-05 14:49:00,57.9,38.0,30.02,WSW,247,4.2,9.0,47,0.00,,,0.03,Rainwise IP-100,2015-05-05 21:49:00,
2015-05-05 14:54:00,57.3,38.0,30.02,East,90,0.0,6.0,48,0.00,,,0.03,Rainwise IP-100,2015-05-05 21:54:00,
2015-05-05 14:59:00,57.4,39.0,30.02,West,270,6.1,7.0,49,0.00,,,0.03,Rainwise IP-100,2015-05-05 21:59:00,
2015-05-05 15:04:00,57.3,38.0,30.01,SSW,202,4.2,10.0,49,0.00,,,0.03,Rainwise IP-100,2015-05-05 22:04:00,
2015-05-05 15:09:00,57.4,39.0,30.01,SE,135,4.2,7.0,49,0.00,,,0.03,Rainwise IP-100,2015-05-05 22:09:00,
2015-05-05 15:14:00,57.5,39.0,30.01,ENE,67,1.9,7.0,49,0.00,,,0.03,Rainwise IP-100,2015-05-05 22:14:00,
2015-05-05 15:19:00,57.4,39.0,30.01,SE,135,3.7,9.0,51,0.00,,,0.03,Rainwise IP-100,2015-05-05 22:19:00,
2015-05-05 15:24:00,57.7,39.0,30.01,SSW,202,1.6,11.0,51,0.00,,,0.03,Rainwise IP-100,2015-05-05 22:24:00,
2015-05-05 15:29:00,57.9,40.0,30.01,WNW,292,3.0,16.0,51,0.00,,,0.03,Rainwise IP-100,2015-05-05 22:29:00,
2015-05-05 15:34:00,57.5,40.0,30.02,WSW,247,0.0,9.0,52,0.00,,,0.03,Rainwise IP-100,2015-05-05 22:34:00,
2015-05-05 15:39:00,57.0,40.0,30.02,WNW,292,0.0,7.0,53,0.00,,,0.03,Rainwise IP-100,2015-05-05 22:39:00,
2015-05-05 15:44:00,56.8,39.0,30.02,ESE,112,2.3,6.0,53,0.00,,,0.03,Rainwise IP-100,2015-05-05 22:44:00,
2015-05-05 15:49:00,57.0,40.0,30.02,ESE,112,7.7,7.7,54,0.00,,,0.03,Rainwise IP-100,2015-05-05 22:49:00,
2015-05-05 15:54:00,57.1,40.0,30.02,WSW,247,5.4,8.0,54,0.00,,,0.03,Rainwise IP-100,2015-05-05 22:54:00,
2015-05-05 15:59:00,57.4,41.0,30.01,NNW,337,1.9,7.0,54,0.00,,,0.03,Rainwise IP-100,2015-05-05 22:59:00,
2015-05-05 16:04:00,57.9,41.0,30.02,NW,315,3.7,7.0,53,0.00,,,0.03,Rainwise IP-100,2015-05-05 23:04:00,
2015-05-05 16:09:00,57.4,40.0,30.02,NW,315,4.0,15.0,52,0.00,,,0.03,Rainwise IP-100,2015-05-05 23:09:00,
2015-05-05 16:14:00,56.2,39.0,30.02,NW,315,6.3,11.0,53,0.00,,,0.03,Rainwise IP-100,2015-05-05 23:14:00,
2015-05-05 16:19:00,54.4,40.0,30.02,WNW,292,5.4,10.0,58,0.06,,,0.04,Rainwise IP-100,2015-05-05 23:19:00,
2015-05-05 16:24:00,52.1,40.0,30.02,WNW,292,6.3,11.0,65,0.06,,,0.04,Rainwise IP-100,2015-05-05 23:24:00,
2015-05-05 16:29:00,50.4,41.0,30.02,WNW,292,5.1,8.0,70,0.00,,,0.05,Rainwise IP-100,2015-05-05 23:29:00,
2015-05-05 16:34:00,49.5,42.0,30.02,WSW,247,6.3,8.0,74,0.06,,,0.05,Rainwise IP-100,2015-05-05 23:34:00,
2015-05-05 16:39:00,48.8,42.0,30.02,WNW,292,2.1,11.0,78,0.06,,,0.05,Rainwise IP-100,2015-05-05 23:39:00,
2015-05-05 16:44:00,48.5,43.0,30.03,WSW,247,3.7,7.0,80,0.00,,,0.05,Rainwise IP-100,2015-05-05 23:44:00,
2015-05-05 16:49:00,48.4,43.0,30.03,West,270,11.7,11.7,82,0.00,,,0.05,Rainwise IP-100,2015-05-05 23:49:00,
2015-05-05 16:54:00,48.3,43.0,30.03,NNW,337,3.5,11.0,83,0.00,,,0.05,Rainwise IP-100,2015-05-05 23:54:00,
2015-05-05 16:59:00,48.2,43.0,30.03,WNW,292,2.6,4.0,83,0.00,,,0.05,Rainwise IP-100,2015-05-05 23:59:00,
2015-05-05 17:04:00,48.0,44.0,30.03,WSW,247,5.4,7.0,84,0.06,,,0.06,Rainwise IP-100,2015-05-06 00:04:00,
2015-05-05 17:09:00,47.9,44.0,30.04,West,270,1.9,11.0,84,0.06,,,0.06,Rainwise IP-100,2015-05-06 00:09:00,
2015-05-05 17:14:00,47.9,44.0,30.05,NNW,337,1.4,4.0,84,0.00,,,0.06,Rainwise IP-100,2015-05-06 00:14:00,
2015-05-05 17:19:00,47.8,43.0,30.04,WSW,247,1.2,4.0,85,0.00,,,0.06,Rainwise IP-100,2015-05-06 00:19:00,
2015-05-05 17:24:00,47.6,43.0,30.05,WSW,247,4.0,5.0,86,0.00,,,0.06,Rainwise IP-100,2015-05-06 00:24:00,
2015-05-05 17:29:00,47.4,44.0,30.05,WSW,247,1.9,7.0,87,0.00,,,0.06,Rainwise IP-100,2015-05-06 00:29:00,
2015-05-05 17:34:00,47.4,43.0,30.05,West,270,4.7,12.0,85,0.00,,,0.06,Rainwise IP-100,2015-05-06 00:34:00,
2015-05-05 17:39:00,47.3,42.0,30.04,WNW,292,2.6,8.0,85,0.00,,,0.06,Rainwise IP-100,2015-05-06 00:39:00,
2015-05-05 17:44:00,47.3,43.0,30.05,WNW,292,4.2,6.0,86,0.00,,,0.06,Rainwise IP-100,2015-05-06 00:44:00,
2015-05-05 17:49:00,47.2,43.0,30.06,WNW,292,2.3,5.0,87,0.06,,,0.07,Rainwise IP-100,2015-05-06 00:49:00,
2015-05-05 17:54:00,47.0,43.0,30.05,WNW,292,1.4,5.0,88,0.06,,,0.07,Rainwise IP-100,2015-05-06 00:54:00,
2015-05-05 17:59:00,46.8,43.0,30.05,WNW,292,1.4,6.0,89,0.00,,,0.07,Rainwise IP-100,2015-05-06 00:59:00,
2015-05-05 18:04:00,46.6,43.0,30.05,WSW,247,2.1,4.0,89,0.00,,,0.07,Rainwise IP-100,2015-05-06 01:04:00,
2015-05-05 18:09:00,46.4,43.0,30.05,WSW,247,1.9,4.0,90,0.00,,,0.07,Rainwise IP-100,2015-05-06 01:09:00,
2015-05-05 18:14:00,46.3,43.0,30.04,West,270,1.9,4.0,90,0.00,,,0.07,Rainwise IP-100,2015-05-06 01:14:00,
2015-05-05 18:19:00,46.3,43.0,30.05,SSW,202,1.4,4.0,90,0.00,,,0.07,Rainwise IP-100,2015-05-06 01:19:00,
2015-05-05 18:24:00,46.2,43.0,30.05,SSW,202,1.4,3.0,90,0.00,,,0.07,Rainwise IP-100,2015-05-06 01:24:00,
2015-05-05 18:29:00,46.2,43.0,30.05,SSW,202,1.2,2.0,90,0.00,,,0.07,Rainwise IP-100,2015-05-06 01:29:00,
2015-05-05 18:34:00,46.2,43.0,30.05,WNW,292,3.5,3.5,91,0.00,,,0.07,Rainwise IP-100,2015-05-06 01:34:00,
2015-05-05 18:39:00,46.3,43.0,30.05,WNW,292,0.0,3.0,90,0.00,,,0.07,Rainwise IP-100,2015-05-06 01:39:00,
2015-05-05 18:44:00,46.2,43.0,30.05,WNW,292,0.0,1.0,91,0.00,,,0.07,Rainwise IP-100,2015-05-06 01:44:00,
2015-05-05 18:49:00,46.1,44.0,30.06,WNW,292,0.0,1.0,92,0.06,,,0.08,Rainwise IP-100,2015-05-06 01:49:00,
2015-05-05 18:54:00,46.0,44.0,30.06,WNW,292,2.1,2.1,93,0.06,,,0.08,Rainwise IP-100,2015-05-06 01:54:00,
2015-05-05 18:59:00,45.8,44.0,30.07,WNW,292,1.4,3.0,93,0.06,,,0.09,Rainwise IP-100,2015-05-06 01:59:00,
2015-05-05 19:04:00,45.7,44.0,30.06,WNW,292,0.0,1.0,94,0.12,,,0.10,Rainwise IP-100,2015-05-06 02:04:00,
2015-05-05 19:09:00,45.6,44.0,30.06,ENE,67,2.6,3.0,94,0.18,,,0.12,Rainwise IP-100,2015-05-06 02:09:00,
2015-05-05 19:14:00,45.6,44.0,30.06,ESE,112,2.3,3.0,95,0.18,,,0.13,Rainwise IP-100,2015-05-06 02:14:00,
2015-05-05 19:19:00,45.7,44.0,30.07,ESE,112,0.0,3.0,95,0.12,,,0.14,Rainwise IP-100,2015-05-06 02:19:00,
2015-05-05 19:24:00,45.7,44.0,30.06,ESE,112,2.3,3.0,95,0.06,,,0.14,Rainwise IP-100,2015-05-06 02:24:00,
2015-05-05 19:29:00,45.7,44.0,30.06,ESE,112,0.0,3.0,95,0.06,,,0.15,Rainwise IP-100,2015-05-06 02:29:00,
2015-05-05 19:34:00,45.8,44.0,30.06,ESE,112,0.0,1.0,95,0.06,,,0.15,Rainwise IP-100,2015-05-06 02:34:00,
2015-05-05 19:39:00,45.8,45.0,30.06,ESE,112,0.0,0.0,96,0.00,,,0.15,Rainwise IP-100,2015-05-06 02:39:00,
2015-05-05 19:44:00,45.9,45.0,30.07,ESE,112,0.0,0.0,96,0.00,,,0.15,Rainwise IP-100,2015-05-06 02:44:00,
2015-05-05 19:49:00,46.0,45.0,30.07,ESE,112,0.0,0.0,96,0.00,,,0.15,Rainwise IP-100,2015-05-06 02:49:00,
2015-05-05 19:54:00,46.1,45.0,30.07,ESE,112,0.0,0.0,97,0.00,,,0.15,Rainwise IP-100,2015-05-06 02:54:00,
2015-05-05 19:59:00,46.0,45.0,30.07,ESE,112,0.0,0.0,97,0.06,,,0.16,Rainwise IP-100,2015-05-06 02:59:00,
2015-05-05 20:04:00,45.9,45.0,30.08,ESE,112,0.0,0.0,97,0.06,,,0.16,Rainwise IP-100,2015-05-06 03:04:00,
2015-05-05 20:09:00,45.8,45.0,30.07,ESE,112,0.0,0.0,97,0.00,,,0.16,Rainwise IP-100,2015-05-06 03:09:00,
2015-05-05 20:14:00,45.8,45.0,30.07,ESE,112,0.0,0.0,97,0.00,,,0.16,Rainwise IP-100,2015-05-06 03:14:00,
2015-05-05 20:19:00,45.6,45.0,30.08,ESE,112,0.0,0.0,97,0.00,,,0.16,Rainwise IP-100,2015-05-06 03:19:00,
2015-05-05 20:24:00,45.6,45.0,30.08,ESE,112,1.4,1.4,97,0.00,,,0.16,Rainwise IP-100,2015-05-06 03:24:00,
2015-05-05 20:29:00,45.8,45.0,30.07,ESE,112,1.6,3.0,98,0.00,,,0.16,Rainwise IP-100,2015-05-06 03:29:00,
2015-05-05 20:34:00,45.8,45.0,30.07,ESE,112,1.9,3.0,98,0.00,,,0.16,Rainwise IP-100,2015-05-06 03:34:00,
2015-05-05 20:39:00,45.7,45.0,30.08,ESE,112,1.9,2.0,98,0.00,,,0.16,Rainwise IP-100,2015-05-06 03:39:00,
2015-05-05 20:44:00,45.5,45.0,30.08,ESE,112,3.5,4.0,97,0.00,,,0.16,Rainwise IP-100,2015-05-06 03:44:00,
2015-05-05 20:49:00,45.3,44.0,30.08,ESE,112,2.1,4.0,97,0.00,,,0.16,Rainwise IP-100,2015-05-06 03:49:00,
2015-05-05 20:55:00,45.2,44.0,30.07,ESE,112,1.6,4.0,97,0.00,,,0.16,Rainwise IP-100,2015-05-06 03:55:00,
2015-05-05 21:05:00,45.1,44.0,30.07,ESE,112,0.0,2.0,97,0.06,,,0.17,Rainwise IP-100,2015-05-06 04:05:00,
2015-05-05 21:10:00,44.9,44.0,30.07,SSE,157,1.4,2.0,97,0.00,,,0.17,Rainwise IP-100,2015-05-06 04:10:00,
2015-05-05 21:15:00,44.8,44.0,30.07,SSE,157,0.0,2.0,97,0.00,,,0.17,Rainwise IP-100,2015-05-06 04:15:00,
2015-05-05 21:20:00,44.6,44.0,30.07,SSE,157,0.0,2.0,97,0.00,,,0.17,Rainwise IP-100,2015-05-06 04:20:00,
2015-05-05 21:25:00,44.6,44.0,30.07,SSE,157,0.0,0.0,97,0.00,,,0.17,Rainwise IP-100,2015-05-06 04:25:00,
2015-05-05 21:30:00,44.3,43.0,30.08,SSE,157,0.0,0.0,97,0.00,,,0.17,Rainwise IP-100,2015-05-06 04:30:00,
2015-05-05 21:35:00,44.1,43.0,30.08,SSE,157,0.0,0.0,97,0.00,,,0.17,Rainwise IP-100,2015-05-06 04:35:00,
2015-05-05 21:40:00,43.8,43.0,30.08,SSE,157,0.0,0.0,98,0.00,,,0.17,Rainwise IP-100,2015-05-06 04:40:00,
2015-05-05 21:45:00,43.6,43.0,30.07,SSE,157,0.0,1.0,98,0.00,,,0.17,Rainwise IP-100,2015-05-06 04:45:00,
2015-05-05 21:50:00,43.3,42.0,30.07,SSE,157,0.0,2.0,98,0.00,,,0.17,Rainwise IP-100,2015-05-06 04:50:00,
2015-05-05 21:55:00,43.2,42.0,30.07,SSE,157,0.0,1.0,98,0.00,,,0.17,Rainwise IP-100,2015-05-06 04:55:00,
2015-05-05 22:00:00,43.1,42.0,30.07,SSE,157,1.2,0.0,98,0.00,,,0.17,Rainwise IP-100,2015-05-06 05:00:00,
2015-05-05 22:05:00,42.9,42.0,30.07,SSE,157,1.4,1.4,98,0.00,,,0.17,Rainwise IP-100,2015-05-06 05:05:00,
2015-05-05 22:10:00,42.7,42.0,30.07,SSE,157,0.0,1.0,98,0.00,,,0.17,Rainwise IP-100,2015-05-06 05:10:00,
2015-05-05 22:15:00,42.5,42.0,30.06,SSE,157,0.0,0.0,98,0.00,,,0.17,Rainwise IP-100,2015-05-06 05:15:00,
2015-05-05 22:20:00,42.2,41.0,30.06,SSE,157,0.0,0.0,98,0.00,,,0.17,Rainwise IP-100,2015-05-06 05:20:00,
2015-05-05 22:25:00,42.0,41.0,30.07,SSE,157,0.0,0.0,98,0.00,,,0.17,Rainwise IP-100,2015-05-06 05:25:00,
2015-05-05 22:30:00,41.7,41.0,30.06,SSE,157,1.2,1.2,98,0.00,,,0.17,Rainwise IP-100,2015-05-06 05:30:00,
2015-05-05 22:35:00,41.6,41.0,30.06,SSE,157,0.0,1.0,98,0.00,,,0.17,Rainwise IP-100,2015-05-06 05:35:00,
2015-05-05 22:40:00,41.5,41.0,30.06,SSE,157,0.0,1.0,98,0.00,,,0.17,Rainwise IP-100,2015-05-06 05:40:00,
2015-05-05 22:45:00,41.3,40.0,30.06,SSE,157,0.0,0.0,98,0.00,,,0.17,Rainwise IP-100,2015-05-06 05:45:00,
2015-05-05 22:50:00,41.2,40.0,30.06,SSE,157,0.0,0.0,98,0.00,,,0.17,Rainwise IP-100,2015-05-06 05:50:00,
2015-05-05 22:55:00,41.1,40.0,30.07,SSE,157,0.0,0.0,98,0.00,,,0.17,Rainwise IP-100,2015-05-06 05:55:00,
2015-05-05 23:00:00,41.0,41.0,30.07,SSE,157,0.0,0.0,99,0.00,,,0.17,Rainwise IP-100,2015-05-06 06:00:00,
2015-05-05 23:05:00,40.7,41.0,30.07,SSE,157,0.0,0.0,99,0.00,,,0.17,Rainwise IP-100,2015-05-06 06:05:00,
2015-05-05 23:10:00,40.3,40.0,30.07,SSE,157,0.0,1.0,99,0.00,,,0.17,Rainwise IP-100,2015-05-06 06:10:00,
2015-05-05 23:15:00,40.2,40.0,30.07,SSE,157,0.0,0.0,99,0.00,,,0.17,Rainwise IP-100,2015-05-06 06:15:00,
2015-05-05 23:20:00,40.1,40.0,30.07,SSE,157,0.0,0.0,99,0.00,,,0.17,Rainwise IP-100,2015-05-06 06:20:00,
2015-05-05 23:25:00,39.7,40.0,30.07,SSE,157,0.0,0.0,99,0.00,,,0.17,Rainwise IP-100,2015-05-06 06:25:00,
2015-05-05 23:30:00,39.5,40.0,30.07,SSE,157,0.0,0.0,99,0.00,,,0.17,Rainwise IP-100,2015-05-06 06:30:00,
2015-05-05 23:35:00,39.6,40.0,30.07,SSE,157,0.0,0.0,99,0.00,,,0.17,Rainwise IP-100,2015-05-06 06:35:00,
2015-05-05 23:40:00,39.7,40.0,30.06,SSE,157,0.0,0.0,99,0.00,,,0.17,Rainwise IP-100,2015-05-06 06:40:00,
2015-05-05 23:45:00,39.6,40.0,30.07,SSE,157,0.0,0.0,99,0.00,,,0.17,Rainwise IP-100,2015-05-06 06:45:00,
2015-05-05 23:50:00,39.7,40.0,30.07,SSE,157,0.0,0.0,100,0.00,,,0.17,Rainwise IP-100,2015-05-06 06:50:00,